LA9UTA-13 Weather Reports


time (UTC)temp
C
wind
direction
speed
KPH
gust
KPH
rain 1hr
cm
rain 24hr
cm
rain mn
cm
humidity
%
barometer
mb
20260509003801 5 163 1.6 3.2 0.00 0.00 0.00 75 1024.1
20260509001802 4 173 1.6 1.6 0.00 0.00 0.00 77 1024.2
20260508235802 6 173 0.0 0.0 0.00 0.00 0.00 72 1024.0
20260508233802 5 158 0.0 0.0 0.00 0.00 0.00 74 1024.1
20260508231802 5 159 0.0 0.0 0.00 0.00 0.00 73 1024.1
20260508225801 6 138 0.0 0.0 0.00 0.00 0.00 70 1025.0
20260508223802 7 174 0.0 0.0 0.00 0.00 0.00 68 1023.9
20260508221802 7 173 0.0 1.6 0.00 0.00 0.00 67 1023.9
20260508215802 8 219 3.2 4.8 0.00 0.00 0.00 64 1023.8
20260508213801 7 148 4.8 4.8 0.00 0.00 0.00 66 1023.9
20260508211802 7 188 3.2 3.2 0.00 0.00 0.00 64 1023.8
20260508205801 6 171 3.2 3.2 0.00 0.00 0.00 68 1024.0
20260508203801 7 178 1.6 1.6 0.00 0.00 0.00 66 1023.9
20260508201801 7 174 1.6 1.6 0.00 0.00 0.00 65 1023.9
20260508195802 8 173 1.6 1.6 0.00 0.00 0.00 61 1023.8
20260508193933 10 168 0.0 1.6 0.00 0.00 0.00 55 1023.6
20260508193801 10 168 0.0 1.6 0.00 0.00 0.00 55 1023.6
20260508192521 10 156 0.0 1.6 0.00 0.00 0.00 52 1023.6
20260508191801 10 156 0.0 1.6 0.00 0.00 0.00 52 1023.6
20260508190003 11 168 0.0 0.0 0.00 0.00 0.00 50 1023.5
20260508185803 11 168 0.0 0.0 0.00 0.00 0.00 50 1023.5
20260508183914 12 167 0.0 1.6 0.00 0.00 0.00 47 1023.4
20260508183803 12 167 0.0 1.6 0.00 0.00 0.00 47 1023.4
20260508181801 12 177 3.2 4.8 0.00 0.00 0.00 47 1023.4
20260508180356 12 165 3.2 3.2 0.00 0.00 0.00 45 1022.4
20260508175802 12 165 3.2 3.2 0.00 0.00 0.00 45 1022.4
20260508173801 12 162 4.8 4.8 0.00 0.00 0.00 44 1022.4
20260508171801 13 154 0.0 0.0 0.00 0.00 0.00 43 1022.3
20260508165801 13 143 0.0 1.6 0.00 0.00 0.00 42 1022.3
20260508163802 15 163 4.8 4.8 0.00 0.00 0.00 40 1022.2
20260508161801 14 228 1.6 1.6 0.00 0.00 0.00 40 1022.2
20260508155957 15 155 8.0 12.9 0.00 0.00 0.00 40 1022.2
20260508155801 15 155 8.0 12.9 0.00 0.00 0.00 40 1022.2
20260508153801 14 238 6.4 9.7 0.00 0.00 0.00 41 1022.2
20260508152011 15 176 6.4 11.3 0.00 0.00 0.00 39 1022.1
20260508151801 15 176 6.4 11.3 0.00 0.00 0.00 39 1022.1
20260508145802 15 232 4.8 4.8 0.00 0.00 0.00 40 1022.2
20260508143801 15 212 3.2 6.4 0.00 0.00 0.00 38 1022.1
20260508141802 15 237 4.8 6.4 0.00 0.00 0.00 39 1022.1
20260508135801 15 124 3.2 6.4 0.00 0.00 0.00 39 1023.1
20260508133801 15 217 3.2 4.8 0.00 0.00 0.00 38 1023.1
20260508131801 15 143 6.4 11.3 0.00 0.00 0.00 39 1023.1
20260508125801 15 155 1.6 1.6 0.00 0.00 0.00 39 1023.1
20260508123801 15 116 6.4 11.3 0.00 0.00 0.00 39 1023.1
20260508121801 15 161 6.4 12.9 0.00 0.00 0.00 37 1023.1
20260508115801 15 135 9.7 14.5 0.00 0.00 0.00 37 1023.2
20260508113802 14 167 4.8 6.4 0.00 0.00 0.00 37 1023.2
20260508111801 15 172 4.8 6.4 0.00 0.00 0.00 40 1023.1
20260508105801 14 169 3.2 4.8 0.00 0.00 0.00 44 1023.2
20260508103801 15 359 6.4 11.3 0.00 0.00 0.00 41 1023.1
20260508101801 15 166 8.0 11.3 0.00 0.00 0.00 44 1023.2
20260508095801 15 152 6.4 9.7 0.00 0.00 0.00 43 1023.2
20260508093801 13 162 6.4 9.7 0.00 0.00 0.00 46 1023.2
20260508091801 12 158 0.0 1.6 0.00 0.00 0.00 42 1023.4
20260508085802 12 141 1.6 3.2 0.00 0.00 0.00 40 1023.3
20260508083801 12 162 0.0 1.6 0.00 0.00 0.00 38 1023.4
20260508081801 13 153 1.6 1.6 0.00 0.00 0.00 39 1023.2
20260508075801 11 143 4.8 4.8 0.00 0.00 0.00 40 1023.5
20260508073801 10 143 1.6 1.6 0.00 0.00 0.00 48 1023.6
20260508071801 7 178 6.4 9.7 0.00 0.00 0.00 52 1022.9
20260508065801 8 151 3.2 4.8 0.00 0.00 0.00 49 1022.8
20260508063801 8 139 0.0 0.0 0.00 0.00 0.00 51 1022.8
20260508061801 6 145 0.0 0.0 0.00 0.00 0.00 59 1023.0
20260508055801 6 179 0.0 1.6 0.00 0.00 0.00 60 1023.0
20260508053801 3 179 0.0 0.0 0.00 0.00 0.00 69 1023.3
20260508052228 1 180 0.0 0.0 0.00 0.00 0.00 77 1022.5
20260508051801 2 180 0.0 0.0 0.00 0.00 0.00 71 1023.4
20260508045801 1 180 0.0 0.0 0.00 0.00 0.00 76 1022.5
20260508043801 1 180 0.0 0.0 0.00 0.00 0.00 77 1022.5
20260508035801 0 180 0.0 0.0 0.00 0.00 0.00 76 1022.6
20260508033801 0 179 0.0 0.0 0.00 0.00 0.00 78 1022.6
20260508031801 0 195 1.6 3.2 0.00 0.00 0.00 79 1022.6
20260508025801 -1 171 0.0 0.0 0.00 0.00 0.00 79 1022.7
20260508025203 0 164 1.6 1.6 0.00 0.00 0.00 78 1022.6
20260508023801 0 164 1.6 1.6 0.00 0.00 0.00 78 1022.6
20260508021802 -1 173 1.6 1.6 0.00 0.00 0.00 77 1022.7
20260508015801 -1 196 3.2 3.2 0.00 0.00 0.00 79 1022.7
20260508015155 -1 165 0.0 0.0 0.00 0.00 0.00 78 1022.7
20260508013801 -1 165 0.0 0.0 0.00 0.00 0.00 78 1022.7
20260508011801 0 278 3.2 3.2 0.00 0.00 0.00 72 1022.6
20260508010646 0 281 3.2 3.2 0.00 0.00 0.00 71 1021.5
20260508005801 0 324 3.2 3.2 0.00 0.00 0.00 76 1021.5